Location: Gunnison Valley Observatory
(38.5087°N, 106.9386°W)
Time: 18:56:20
(UTC-06:00)

Amateur Radio Satellites - All Passes

Search period start: 24 April 2017 18:26
Search period end: 25 April 2017 18:26
Location: Gunnison Valley Observatory, 38.5087°N, 106.9386°W

Satellite Date Start Highest point End Downlink Frequencies (MHz)
Time Altitude Azimuth
DOVE 4 24 Apr 18:28:29 18:33:46 72° 259° (W) 18:39:02 437.250
NUDT-PHONESAT 24 Apr 18:35:14 18:38:52 72° 77° (ENE) 18:42:32 437.300
CUTE-I 24 Apr 18:38:19 18:43:40 86° 76° (ENE) 18:49:03 437.470
YUBILEINY 24 Apr 18:44:30 18:48:11 13° 284° (WNW) 18:51:53 435.215
XW-2D 24 Apr 19:04:55 19:08:18 33° 263° (W) 19:11:43 145.860 - 145.880
XW-2B 24 Apr 19:11:58 19:15:12 28° 263° (W) 19:18:29 145.730 - 145.750
CUTE 1.7 + AOD 2 24 Apr 19:14:27 19:18:09 31° 71° (ENE) 19:21:53 437.475
STRAND 1 24 Apr 19:18:52 19:21:17 13° 91° (E) 19:23:40 437.568
LilacSat-2 24 Apr 19:20:38 19:23:31 21° 265° (W) 19:26:27 437.200
AAUSAT CUBESAT 2 24 Apr 19:21:13 19:22:21 11° 64° (ENE) 19:23:29 437.432
XW-2A 24 Apr 19:22:01 19:25:07 35° 74° (ENE) 19:28:13 145.665 - 145.685
XW-2C 24 Apr 19:24:18 19:27:05 20° 265° (W) 19:29:53 145.795 - 145.815
KAITUO 1B 24 Apr 19:27:29 19:30:25 22° 264° (W) 19:33:22 145.475/437.950
HO-68 24 Apr 19:32:04 19:39:09 69° 71° (ENE) 19:46:16 435.675
SEEDS 24 Apr 19:38:43 19:42:34 37° 72° (ENE) 19:46:27 437.485
O/OREOS (USA 219) 24 Apr 19:45:28 19:46:50 11° 53° (NE) 19:48:12 437.305
UWE-3 24 Apr 19:48:25 19:51:37 21° 69° (ENE) 19:54:46 435.000/436.395/437.385
RS-15 24 Apr 19:53:47 20:01:43 21° 262° (W) 20:09:29 29.354- 29.394
CUBEBUG 2 24 Apr 19:55:40 19:59:50 42° 73° (ENE) 20:03:54 437.445
M-CUBED/EXP-1 PRIME 24 Apr 20:15:35 20:19:29 37° 102° (ESE) 20:23:06 437.505
JUGNU 24 Apr 20:20:36 20:22:48 12° 180° (S) 20:25:00 437.505
CUTE-I 24 Apr 20:23:36 20:24:19 10° 271° (W) 20:25:02 437.470
NO-84 24 Apr 20:41:46 20:45:28 87° 323° (NW) 20:48:51 435.350 FM
ZACube-1 24 Apr 20:47:57 20:52:04 55° 75° (ENE) 20:56:09 437.345
CUTE 1.7 + AOD 2 24 Apr 20:50:56 20:54:01 20° 266° (W) 20:57:07 437.475
AAUSAT CUBESAT 2 24 Apr 20:53:11 20:57:16 59° 260° (W) 21:01:22 437.432
STRAND 1 24 Apr 20:55:48 21:00:52 65° 287° (WNW) 21:05:55 437.568
AO-73 24 Apr 20:56:08 21:00:17 62° 75° (ENE) 21:04:23 145.935
XW-2A 24 Apr 20:57:38 20:58:01 10° 268° (W) 20:58:25 145.665 - 145.685
Oscar 11 24 Apr 21:14:15 21:18:32 85° 79° (E) 21:22:52 .
SEEDS 24 Apr 21:15:48 21:18:23 16° 267° (W) 21:21:00 437.485
O/OREOS (USA 219) 24 Apr 21:22:15 21:26:51 79° 251° (WSW) 21:31:23 437.305
HO-68 24 Apr 21:22:22 21:27:23 20° 268° (W) 21:32:27 435.675
UWE-3 24 Apr 21:24:04 21:27:53 30° 263° (W) 21:31:38 435.000/436.395/437.385
CUBEBUG 2 24 Apr 21:33:59 21:36:36 15° 267° (W) 21:39:10 437.445
OBJECT BX 24 Apr 21:37:21 21:40:29 28° 72° (ENE) 21:43:38 145.990 - 145.960
SRMSAT 24 Apr 21:40:06 21:41:15 11° 172° (S) 21:42:24 437.500
M-CUBED/EXP-1 PRIME 24 Apr 21:50:44 21:53:34 18° 300° (WNW) 21:56:17 437.505
DELFI C3 24 Apr 21:57:06 22:01:02 73° 78° (ENE) 22:05:03 145.870
FO-29 24 Apr 22:09:25 22:11:30 12° 91° (E) 22:13:38 435.910
NO-84 24 Apr 22:21:49 22:23:22 12° 331° (NNW) 22:24:52 435.350 FM
TIGRISAT 24 Apr 22:21:58 22:24:59 19° 94° (E) 22:28:01 435.000
ZACube-1 24 Apr 22:27:36 22:28:39 11° 269° (W) 22:29:41 437.345
AO-85 24 Apr 22:27:44 22:31:41 64° 58° (ENE) 22:35:50 145.980
BEESAT 3 24 Apr 22:40:28 22:43:07 17° 47° (NE) 22:45:46 437.485
UNISAT 6 24 Apr 22:41:49 22:45:44 34° 98° (E) 22:49:40 437.425
LO-87 24 Apr 22:48:21 22:51:28 27° 72° (ENE) 22:54:35 145.935 - 145.965
PRISM 24 Apr 22:48:30 22:52:40 70° 103° (ESE) 22:56:46 437.425
OBJECT BX 24 Apr 23:11:57 23:14:11 16° 266° (W) 23:16:26 145.990 - 145.960
SRMSAT 24 Apr 23:27:22 23:29:31 12° 183° (S) 23:31:40 437.500
FO-29 24 Apr 23:51:53 23:57:03 68° 286° (WNW) 00:02:30 435.910
NANOSAT C BR1 24 Apr 23:52:08 23:53:47 12° 92° (E) 23:55:25 145.865
ESTCUBE 1 24 Apr 23:53:50 23:58:20 85° 258° (WSW) 00:02:53 437.505/2401.250
TIGRISAT 24 Apr 23:57:54 00:01:44 33° 289° (WNW) 00:05:37 435.000
SPROUT 24 Apr 23:59:25 00:03:00 26° 70° (ENE) 00:06:35 437.525
BEESAT 2 25 Apr 00:11:02 00:15:02 53° 56° (ENE) 00:18:58 435.950
VELOX 1 25 Apr 00:16:21 00:20:35 46° 73° (ENE) 00:24:52 145.980
EO-79 25 Apr 00:16:56 00:20:30 26° 96° (E) 00:24:03 145.935-145.965
BEESAT 3 25 Apr 00:17:06 00:20:57 45° 244° (WSW) 00:24:44 437.485
UNISAT 6 25 Apr 00:19:10 00:22:12 19° 293° (WNW) 00:25:14 437.425
DUCHIFAT 1 25 Apr 00:21:34 00:24:59 24° 96° (E) 00:28:24 145.980
LO-87 25 Apr 00:22:35 00:24:55 16° 266° (W) 00:27:15 145.935 - 145.965
AIST 2D 25 Apr 00:42:20 00:45:48 61° 284° (WNW) 00:49:17 435.315
UKube-1 25 Apr 00:46:55 00:50:31 26° 69° (ENE) 00:54:07 .
POLYITAN 1 25 Apr 00:55:04 00:59:16 78° 101° (ESE) 01:03:27 437.675
QB50P2 25 Apr 01:01:34 01:05:47 81° 283° (WNW) 01:09:58 145.880/145.840
50 SAT 25 Apr 01:08:35 01:12:02 69° 258° (WSW) 01:15:32 437.505
DX 1 25 Apr 01:14:45 01:19:07 79° 76° (ENE) 01:23:31 434.975-435.025
Oscar 19 25 Apr 01:23:58 01:26:39 14° 91° (E) 01:29:18 437.125/150
NANOSAT C BR1 25 Apr 01:25:43 01:29:45 49° 287° (WNW) 01:33:47 145.865
BUGSAT 1 25 Apr 01:31:18 01:35:11 47° 100° (E) 01:39:03 437.445
SPROUT 25 Apr 01:35:21 01:38:50 24° 264° (W) 01:42:19 437.525
PCSat 25 Apr 01:47:20 01:49:54 14° 103° (ESE) 01:52:30 145.827
BEESAT 2 25 Apr 01:50:40 01:52:18 12° 252° (WSW) 01:53:56 435.950
EO-79 25 Apr 01:52:49 01:56:08 23° 291° (WNW) 01:59:26 145.935-145.965
VELOX 1 25 Apr 01:54:41 01:57:15 15° 268° (W) 01:59:49 145.980
DUCHIFAT 1 25 Apr 01:57:10 02:00:34 25° 291° (WNW) 02:03:57 145.980
UKube-1 25 Apr 02:22:51 02:26:26 25° 264° (W) 02:30:03 .
BEESAT 25 Apr 02:29:37 02:33:37 28° 68° (ENE) 02:37:38 436.000
MOZHAYETS 4 25 Apr 02:41:44 02:44:32 16° 65° (ENE) 02:47:20
Gurwin Techsat 1B 25 Apr 02:47:01 02:52:13 54° 100° (E) 02:57:24 435.225
Oscar 19 25 Apr 03:01:12 03:06:22 64° 287° (WNW) 03:11:29 437.125/150
ITUPSAT 1 25 Apr 03:08:03 03:12:46 69° 75° (ENE) 03:17:30 437.325
BUGSAT 1 25 Apr 03:08:25 03:10:06 12° 295° (WNW) 03:11:49 437.445
NO-84 25 Apr 03:17:31 03:19:58 24° 36° (NE) 03:22:21 435.350 FM
PCSat 25 Apr 03:27:13 03:32:36 73° 299° (WNW) 03:38:03 145.827
YUBILEINY 25 Apr 03:48:58 03:55:31 25° 81° (E) 04:02:02 435.215
AO-7 25 Apr 04:05:21 04:13:04 40° 100° (E) 04:20:44 .
BEESAT 25 Apr 04:07:14 04:11:18 28° 264° (W) 04:15:24 436.000
MOZHAYETS 4 25 Apr 04:16:56 04:21:17 46° 261° (W) 04:25:41
ITAMSAT 1 25 Apr 04:22:44 04:27:53 65° 102° (ESE) 04:33:00 435.822/435.867
Gurwin Techsat 1B 25 Apr 04:28:06 04:31:43 19° 296° (WNW) 04:35:20 435.225
KKS-1 25 Apr 04:42:34 04:46:58 58° 74° (ENE) 04:51:23 437.445
ITUPSAT 1 25 Apr 04:49:43 04:51:02 11° 270° (W) 04:52:20 437.325
NO-84 25 Apr 04:55:12 04:57:20 19° 233° (SW) 04:59:27 435.350 FM
CUBESAT XI-V 25 Apr 05:02:28 05:07:05 87° 79° (E) 05:11:47 437.345
PCSat 25 Apr 05:14:47 05:16:58 12° 318° (NW) 05:19:09 145.827
STARS 25 Apr 05:19:34 05:23:56 64° 74° (ENE) 05:28:18 437.465
YUBILEINY 25 Apr 05:42:53 05:51:30 66° 280° (W) 06:00:10 435.215
RS-15 25 Apr 05:54:15 06:00:00 15° 95° (E) 06:05:48 29.354- 29.394
AO-7 25 Apr 05:58:05 06:05:47 44° 297° (WNW) 06:13:30 .
ITAMSAT 1 25 Apr 06:03:51 06:06:47 15° 298° (WNW) 06:09:42 435.822/435.867
KKS-1 25 Apr 06:22:13 06:23:52 12° 269° (W) 06:25:30 437.445
DOVE 4 25 Apr 06:29:48 06:34:01 34° 96° (E) 06:37:59 437.250
STRAND 1 25 Apr 06:33:08 06:36:30 18° 64° (ENE) 06:39:53 437.568
XW-2D 25 Apr 06:38:44 06:41:55 25° 96° (E) 06:45:06 145.860 - 145.880
XW-2B 25 Apr 06:45:29 06:48:50 29° 97° (E) 06:52:12 145.730 - 145.750
LilacSat-2 25 Apr 06:54:09 06:57:47 40° 98° (E) 07:01:26 437.200
CUTE-I 25 Apr 06:57:04 07:02:00 38° 98° (E) 07:06:54 437.470
XW-2C 25 Apr 06:57:05 07:00:43 42° 99° (E) 07:04:21 145.795 - 145.815
M-CUBED/EXP-1 PRIME 25 Apr 06:58:52 07:03:09 41° 67° (ENE) 07:07:32 437.505
KAITUO 1B 25 Apr 06:59:14 07:02:42 34° 98° (E) 07:06:10 145.475/437.950
STARS 25 Apr 06:59:50 07:00:38 10° 269° (W) 07:01:26 437.465
SO-50 25 Apr 07:00:22 07:04:53 54° 117° (ESE) 07:09:22 436.795
HO-68 25 Apr 07:04:29 07:07:19 12° 89° (E) 07:10:08 435.675
XW-2F 25 Apr 07:23:47 07:27:36 87° 283° (WNW) 07:31:25 145.980 - 146.000
NUDT-PHONESAT 25 Apr 07:40:42 07:44:23 63° 284° (WNW) 07:48:04 437.300
YUBILEINY 25 Apr 07:47:45 07:50:11 11° 302° (WNW) 07:52:38 435.215
RS-15 25 Apr 07:58:15 08:10:07 72° 115° (ESE) 08:22:24 29.354- 29.394
DOVE 4 25 Apr 08:08:00 08:11:27 21° 294° (WNW) 08:14:45 437.250
STRAND 1 25 Apr 08:10:16 08:15:14 52° 260° (W) 08:20:14 437.568
XW-2D 25 Apr 08:13:08 08:15:57 20° 291° (WNW) 08:18:45 145.860 - 145.880
XW-2A 25 Apr 08:17:34 08:20:48 46° 99° (E) 08:24:02 145.665 - 145.685
XW-2B 25 Apr 08:20:15 08:22:48 17° 292° (WNW) 08:25:20 145.730 - 145.750
LilacSat-2 25 Apr 08:29:52 08:31:42 13° 293° (WNW) 08:33:31 437.200
XW-2C 25 Apr 08:32:52 08:34:31 13° 294° (WNW) 08:36:10 145.795 - 145.815
KAITUO 1B 25 Apr 08:34:17 08:36:24 15° 293° (WNW) 08:38:31 145.475/437.950
M-CUBED/EXP-1 PRIME 25 Apr 08:34:19 08:37:39 20° 262° (W) 08:41:05 437.505
CUTE 1.7 + AOD 2 25 Apr 08:35:38 08:39:56 77° 102° (ESE) 08:44:13 437.475
AAUSAT CUBESAT 2 25 Apr 08:37:08 08:40:29 23° 95° (E) 08:43:47 437.432
CUTE-I 25 Apr 08:37:31 08:41:49 26° 294° (WNW) 08:46:07 437.470
ZACube-1 25 Apr 08:39:30 08:40:55 11° 91° (E) 08:42:19 437.345
SO-50 25 Apr 08:42:25 08:45:39 19° 314° (NW) 08:48:52 436.795
AO-73 25 Apr 08:46:56 08:48:51 13° 92° (E) 08:50:46 145.935
HO-68 25 Apr 08:48:43 08:55:57 83° 104° (ESE) 09:03:10 435.675
SEEDS 25 Apr 08:58:54 09:03:11 89° 274° (W) 09:07:26 437.485
Tancredo 1 25 Apr 09:00:04 09:03:07 63° 139° (SE) 09:06:12 437.200
Oscar 11 25 Apr 09:03:52 09:06:45 17° 93° (E) 09:09:38 .
ISS 25 Apr 09:08:53 09:12:05 59° 138° (SE) 09:15:18 437.550
UWE-3 25 Apr 09:14:09 09:18:15 54° 100° (E) 09:22:25 435.000/436.395/437.385
TIGRISAT 25 Apr 09:20:03 09:22:31 15° 66° (ENE) 09:24:57 435.000
CUBEBUG 2 25 Apr 09:23:51 09:27:59 66° 284° (WNW) 09:32:09 437.445
PRISM 25 Apr 09:36:06 09:39:58 39° 72° (ENE) 09:43:51 437.425
DELFI C3 25 Apr 09:38:37 09:39:01 10° 90° (E) 09:39:25 145.870
UNISAT 6 25 Apr 09:39:25 09:43:04 26° 70° (ENE) 09:46:40 437.425
O/OREOS (USA 219) 25 Apr 09:56:00 09:58:27 14° 99° (E) 10:00:54 437.305
FO-29 25 Apr 10:02:10 10:08:12 43° 71° (ENE) 10:13:36 435.910
AAUSAT CUBESAT 2 25 Apr 10:12:21 10:15:52 27° 290° (WNW) 10:19:23 437.432
RS-15 25 Apr 10:12:35 10:23:39 39° 319° (NW) 10:34:59 29.354- 29.394
ZACube-1 25 Apr 10:13:22 10:17:28 53° 285° (WNW) 10:21:38 437.345
AO-73 25 Apr 10:21:15 10:25:18 48° 286° (WNW) 10:29:25 145.935
PCSat 25 Apr 10:35:54 10:37:26 11° 40° (NE) 10:38:58 145.827
Tancredo 1 25 Apr 10:37:08 10:39:18 17° 336° (NNW) 10:41:29 437.200
HO-68 25 Apr 10:38:08 10:42:48 19° 303° (WNW) 10:47:30 435.675
Oscar 11 25 Apr 10:38:58 10:42:59 37° 288° (WNW) 10:47:00 .
OBJECT BX 25 Apr 10:40:31 10:44:03 45° 99° (E) 10:47:34 145.990 - 145.960
ISS 25 Apr 10:46:22 10:48:48 19° 335° (NNW) 10:51:14 437.550
UWE-3 25 Apr 10:52:36 10:54:15 12° 295° (WNW) 10:55:54 435.000/436.395/437.385
TIGRISAT 25 Apr 10:54:33 10:58:49 47° 261° (W) 11:03:00 435.000
EO-79 25 Apr 11:08:33 11:11:21 18° 67° (ENE) 11:14:10 145.935-145.965
DELFI C3 25 Apr 11:10:10 11:14:06 53° 285° (WNW) 11:17:58 145.870
DUCHIFAT 1 25 Apr 11:12:44 11:15:16 16° 66° (ENE) 11:17:49 145.980
PRISM 25 Apr 11:12:57 11:15:24 15° 267° (W) 11:17:51 437.425
AIST 2D 25 Apr 11:15:16 11:18:23 32° 73° (ENE) 11:21:32 435.315
UNISAT 6 25 Apr 11:16:02 11:19:41 25° 264° (W) 11:23:19 437.425
O/OREOS (USA 219) 25 Apr 11:32:55 11:37:22 50° 295° (WNW) 11:41:52 437.305
POLYITAN 1 25 Apr 11:45:54 11:49:56 46° 73° (ENE) 11:53:57 437.675
FO-29 25 Apr 11:47:57 11:53:18 27° 263° (W) 11:58:13 435.910
ESTCUBE 1 25 Apr 11:48:21 11:51:54 22° 94° (E) 11:55:27 437.505/2401.250
LO-87 25 Apr 11:49:36 11:52:59 40° 99° (E) 11:56:20 145.935 - 145.965
QB50P2 25 Apr 11:52:16 11:56:26 60° 74° (ENE) 12:00:36 145.880/145.840
NANOSAT C BR1 25 Apr 12:15:41 12:19:54 86° 259° (W) 12:24:07 145.865
OBJECT BX 25 Apr 12:16:21 12:17:18 11° 294° (WNW) 12:18:15 145.990 - 145.960
PCSat 25 Apr 12:16:30 12:21:55 65° 60° (ENE) 12:27:17 145.827
BUGSAT 1 25 Apr 12:19:33 12:23:07 28° 70° (ENE) 12:26:38 437.445
RS-15 25 Apr 12:33:10 12:41:16 19° 353° (N) 12:49:22 29.354- 29.394
Oscar 19 25 Apr 12:39:12 12:42:44 19° 64° (ENE) 12:46:18 437.125/150
AO-85 25 Apr 12:41:07 12:44:53 29° 114° (ESE) 12:48:28 145.980
EO-79 25 Apr 12:42:55 12:46:50 36° 262° (W) 12:50:44 145.935-145.965
DUCHIFAT 1 25 Apr 12:46:38 12:50:36 40° 261° (W) 12:54:34 145.980
AIST 2D 25 Apr 12:50:19 12:51:43 12° 268° (W) 12:53:07 435.315
DX 1 25 Apr 13:05:45 13:08:15 15° 93° (E) 13:10:43 434.975-435.025
SPROUT 25 Apr 13:21:23 13:25:36 61° 101° (E) 13:29:46 437.525
POLYITAN 1 25 Apr 13:23:53 13:25:56 13° 268° (W) 13:27:59 437.675
ESTCUBE 1 25 Apr 13:24:41 13:28:43 32° 290° (WNW) 13:32:43 437.505/2401.250
LO-87 25 Apr 13:24:55 13:26:01 11° 294° (WNW) 13:27:08 145.935 - 145.965
QB50P2 25 Apr 13:32:17 13:32:34 10° 269° (W) 13:32:50 145.880/145.840
VELOX 1 25 Apr 13:43:47 13:48:13 71° 285° (WNW) 13:52:35 145.980
Tancredo 1 25 Apr 13:52:33 13:53:24 11° 16° (NNE) 13:54:15 437.200
BUGSAT 1 25 Apr 13:55:14 13:58:26 21° 265° (W) 14:01:37 437.445
PCSat 25 Apr 14:01:34 14:04:41 16° 256° (WSW) 14:07:48 145.827
ISS 25 Apr 14:02:49 14:04:03 12° 16° (NNE) 14:05:15 437.550
BEESAT 2 25 Apr 14:03:03 14:04:46 13° 108° (ESE) 14:06:30 435.950
ITAMSAT 1 25 Apr 14:04:56 14:05:44 10° 59° (ENE) 14:06:32 435.822/435.867
BEESAT 3 25 Apr 14:05:13 14:08:51 38° 115° (ESE) 14:12:33 437.485
50 SAT 25 Apr 14:06:17 14:09:41 51° 286° (WNW) 14:13:03 437.505
Gurwin Techsat 1B 25 Apr 14:06:33 14:11:50 74° 74° (ENE) 14:17:10 435.225
UKube-1 25 Apr 14:10:17 14:14:33 56° 101° (E) 14:18:46 .
Oscar 19 25 Apr 14:16:38 14:21:38 51° 260° (W) 14:26:41 437.125/150
AO-85 25 Apr 14:21:41 14:25:14 25° 309° (NW) 14:28:39 145.980
DX 1 25 Apr 14:40:28 14:44:37 44° 288° (WNW) 14:48:44 434.975-435.025
RS-15 25 Apr 14:50:00 14:59:59 27° 29° (NNE) 15:09:39 29.354- 29.394
SPROUT 25 Apr 14:59:40 15:00:57 11° 296° (WNW) 15:02:14 437.525
AO-7 25 Apr 15:02:39 15:10:30 50° 64° (ENE) 15:18:22 .
ITUPSAT 1 25 Apr 15:10:48 15:14:14 19° 94° (E) 15:17:39 437.325
Tancredo 1 25 Apr 15:26:58 15:29:58 43° 35° (NE) 15:32:56 437.200
SO-50 25 Apr 15:33:08 15:37:12 32° 51° (NE) 15:41:16 436.795
ISS 25 Apr 15:38:03 15:41:11 44° 35° (NE) 15:44:19 437.550
BEESAT 2 25 Apr 15:38:13 15:42:03 49° 304° (NW) 15:45:59 435.950
ITAMSAT 1 25 Apr 15:39:09 15:44:21 85° 75° (ENE) 15:49:34 435.822/435.867
BEESAT 3 25 Apr 15:43:44 15:46:35 19° 312° (NW) 15:49:28 437.485
UKube-1 25 Apr 15:48:11 15:50:04 13° 297° (WNW) 15:51:57 .
Gurwin Techsat 1B 25 Apr 15:50:12 15:52:18 12° 270° (W) 15:54:23 435.225
YUBILEINY 25 Apr 15:54:41 16:03:20 59° 79° (E) 16:11:58 435.215
BEESAT 25 Apr 16:07:44 16:12:31 80° 103° (ESE) 16:17:16 436.000
MOZHAYETS 4 25 Apr 16:13:03 16:17:27 43° 99° (E) 16:21:51
KKS-1 25 Apr 16:36:58 16:38:43 12° 91° (E) 16:40:28 437.445
ITUPSAT 1 25 Apr 16:47:44 16:52:11 40° 289° (WNW) 16:56:39 437.325
AO-7 25 Apr 16:55:59 17:03:22 35° 262° (W) 17:10:49 .
CUBESAT XI-V 25 Apr 17:00:57 17:04:47 24° 95° (E) 17:08:35 437.345
RS-15 25 Apr 17:02:43 17:15:02 75° 57° (ENE) 17:26:42 29.354- 29.394
Tancredo 1 25 Apr 17:03:39 17:05:37 16° 230° (SW) 17:07:35 437.200
STARS 25 Apr 17:12:15 17:14:05 12° 92° (E) 17:15:54 437.465
SO-50 25 Apr 17:13:49 17:17:30 25° 248° (WSW) 17:21:11 436.795
ISS 25 Apr 17:15:12 17:17:25 17° 230° (SW) 17:19:37 437.550
XW-2D 25 Apr 17:21:02 17:21:46 10° 65° (ENE) 17:22:31 145.860 - 145.880
XW-2B 25 Apr 17:27:04 17:28:37 12° 66° (ENE) 17:30:10 145.730 - 145.750
DOVE 4 25 Apr 17:32:39 17:37:23 34° 70° (ENE) 17:42:04 437.250
LilacSat-2 25 Apr 17:35:35 17:38:02 17° 68° (ENE) 17:40:28 437.200
XW-2C 25 Apr 17:37:54 17:40:22 17° 68° (ENE) 17:42:50 145.795 - 145.815
KAITUO 1B 25 Apr 17:39:17 17:41:11 14° 67° (ENE) 17:43:04 145.475/437.950
BEESAT 25 Apr 17:48:25 17:49:36 11° 299° (WNW) 17:50:46 436.000
MOZHAYETS 4 25 Apr 17:51:11 17:54:15 18° 294° (WNW) 17:57:18
YUBILEINY 25 Apr 17:52:29 17:59:29 28° 277° (W) 18:06:31 435.215
XW-2F 25 Apr 18:03:19 18:06:40 33° 72° (ENE) 18:10:02 145.980 - 146.000
KKS-1 25 Apr 18:11:15 18:15:36 55° 286° (WNW) 18:19:54 437.445
NUDT-PHONESAT 25 Apr 18:18:25 18:21:52 41° 74° (ENE) 18:25:20 437.300
